Flag for U.S.A. Weather past 2 weeks in Warren, Michigan, U.S.A.

Now
53 °F

Passing clouds.


Feels Like: 51 °F
Forecast: 50 / 59 °F
Wind: 7 mph from Northeast

Location: Detroit City Airport

Current Time: May 5, 2015 at 7:16:24 AM

Latest Report: May 5, 2015 at 6:53 AM


Visibility: 10 mi

Pressure: 30.27 "Hg

Humidity: 48%

Dew point: 34 °F

Location of WarrenLocation

Historic Weather in Warren — Graph

°F

Warren temperature yesterday

Maximum temperature yesterday: 74 °F (at 7:53 PM)
Minimum temperature yesterday: 61 °F (at 11:53 PM)
Average temperature yesterday: 67 °F

Past Weeks' High & Low Weather Summary

 TemperatureHumidityPressure
High77 °F (May 3, 3:53 PM)93% (Apr 20, 5:53 AM)30.26 "Hg (Apr 20, 5:53 AM)
Low30 °F (Apr 24, 5:53 AM)21% (Apr 24, 4:53 PM)29.24 "Hg (Apr 20, 5:53 AM)
Average50 °F58%29.91 "Hg
* Reported Apr 20 5:53 AM — May 5 5:53 AM, Warren, Weather by CustomWeather, © 2015

Note: Actual official high and low records may vary slightly from our data, if they occured in-between our weather recording intervals... More about our weather records

Advertising

Warren weather history for previous 24 hours

 ConditionsComfort  
Time TempWeatherWind HumidityBarometerVisibility
5:53 AM
Tue, May 5
53 °FPassing clouds.10 mph52%30.26 "Hg10 mi
4:53 AM55 °FClear.13 mph53%30.24 "Hg10 mi
3:53 AM57 °FClear.9 mph49%30.22 "Hg10 mi
2:53 AM59 °FPassing clouds.8 mph46%30.21 "Hg10 mi
1:53 AM59 °FOvercast.10 mph56%30.20 "Hg10 mi
12:53 AM60 °FPassing clouds.10 mph72%30.20 "Hg10 mi
11:53 PM
Mon, May 4
61 °FClear.5 mph87%30.17 "Hg8 mi
10:53 PM63 °FClear.3 mph84%30.17 "Hg10 mi
9:53 PM66 °FClear.No wind81%30.15 "Hg10 mi
8:53 PM69 °FSunny.6 mph70%30.12 "Hg10 mi
7:53 PM74 °FThundershowers. Sunny.3 mph56%30.10 "Hg10 mi
6:53 PM73 °FScattered clouds.9 mph62%30.09 "Hg10 mi
5:53 PM72 °FPassing clouds.12 mph64%30.08 "Hg10 mi
4:53 PM72 °FScattered clouds.13 mph64%30.07 "Hg10 mi
3:53 PM73 °FPassing clouds.13 mph59%30.05 "Hg10 mi
2:53 PM73 °FPartly sunny.12 mph57%30.05 "Hg10 mi
1:53 PM70 °FOvercast.13 mph64%30.04 "Hg10 mi
12:53 PM66 °FBroken clouds.17 mph70%30.06 "Hg10 mi
11:53 AM65 °FPartly sunny.12 mph76%30.05 "Hg10 mi
10:53 AM69 °FPartly sunny.14 mph51%30.03 "Hg10 mi
9:53 AM67 °FPassing clouds.15 mph55%30.00 "Hg10 mi
8:53 AM65 °FPartly sunny.10 mph59%30.03 "Hg10 mi
7:53 AM63 °FPartly sunny.6 mph63%30.02 "Hg10 mi
Weather by CustomWeather, © 2015

See weather overviewHow to use our weather pages